sat.trackr.live / text

‹ back to catalog

STARLINK-31450

NORAD 59006 · 2024-036J

PAYLOAD ACTIVE UNKNOWN

§ Identity

Operator
Country
US
Launch date
2024-02-23
Launch site
AFWTR
Launch vehicle
Mass (kg)
RCS (m²)

Purposes: comms

External: N2YO · Heavens-Above · Gunter

§ Orbital elements

Epoch: 2026-09-20T23:27:45.830592Z

Period
93.85 min
Inclination
53.1582°
Eccentricity
0.0002475
Mean motion
15.34393751 rev/d
Perigee alt
461.0 km
Apogee alt
464.4 km
Semi-major
6,840.9 km
B*
-9.2905e-5
RAAN
249.5473°
Arg perigee
92.2903°
Mean anomaly
267.8383°
Rev number
14,524

§ Raw data

STARLINK-314501 59006U 24036J   26263.97761378 -.00003514  00000+0 -92905-4 0  99952 59006  53.1582 249.5473 0002475  92.2903 267.8383 15.34393751145247

JSON: /api/v1/satellites/59006 · /tle

For live sub-satellite position, see the globe view (requires WebGL).

§ Visibility from observer

Set your observer location to see the next 7 days of passes ≥ 10°. The values pass through the URL so the page stays shareable.

No JS? Fill the form by hand. The geolocation button needs JavaScript.